ISS (ZARYA) 1 25544U 98067A 26263.78762384 .00007766 00000+0 14793-3 0 9996 2 25544 51.6308 186.9475 0004819 163.3027 196.8121 15.49200337586572 POISK 1 36086U 09060A 26263.78762384 .00007766 00000+0 14793-3 0 9994 2 36086 51.6308 186.9475 0004819 163.3027 196.8121 15.49200337586946 CSS (TIANHE) 1 48274U 21035A 26263.92234256 .00013769 00000+0 16837-3 0 9991 2 48274 41.4679 100.7142 0002502 293.6963 66.3613 15.60143111308111 ISS (NAUKA) 1 49044U 21066A 26263.78762384 .00007766 00000+0 14793-3 0 9992 2 49044 51.6308 186.9475 0004819 163.3027 196.8121 15.49200337586988 FREGAT DEB 1 49271U 11037PF 26262.19552305 .00010835 00000+0 15154-1 0 9996 2 49271 51.6468 78.6970 0944064 131.6853 236.8792 12.44551487236746 CSS (WENTIAN) 1 53239U 22085A 26263.92234256 .00013769 00000+0 16837-3 0 9994 2 53239 41.4679 100.7142 0002502 293.6963 66.3613 15.60143111288238 CSS (MENGTIAN) 1 54216U 22143A 26263.92234256 .00013769 00000+0 16837-3 0 9995 2 54216 41.4679 100.7142 0002502 293.6963 66.3613 15.60143111308091 HRC MONOBLOCK CAMERA 1 66052U 98067XR 26263.95687670 .00233005 32999-4 51865-3 0 9993 2 66052 51.6132 140.4644 0004978 191.3828 168.7069 15.97402945 53171 SZ-21 MODULE 1 66515U 25246C 26262.79020193 .00068397 00000+0 26788-3 0 9997 2 66515 41.4702 74.2737 0011479 331.5770 28.4450 15.85904869 48719 DUPLEX 1 66906U 98067XS 26263.44528220 .00047677 00000+0 38810-3 0 9996 2 66906 51.6251 165.8431 0004469 164.3050 195.8086 15.70157063 45583 KNACKSAT-2 1 67683U 98067XZ 26263.46449619 .00061601 00000+0 51214-3 0 9991 2 67683 51.6240 172.0038 0008218 186.0797 174.0101 15.69509455 35199 GXIBA-1 1 67685U 98067YB 26262.48015762 .00085832 00000+0 59955-3 0 9994 2 67685 51.6228 174.3941 0008976 180.7732 179.3254 15.73504864 35074 UITMSAT-2 1 67686U 98067YC 26262.04776538 .00203393 00000+0 80180-3 0 9990 2 67686 51.6181 170.6922 0008124 164.7475 195.3775 15.85686331 35082 LEOPARD 1 67687U 98067YD 26263.02842523 .00156559 00000+0 98877-3 0 9991 2 67687 51.6233 172.0923 0008611 170.3909 189.7257 15.75567620 35073 HMU-SAT2 1 67688U 98067YE 26262.48212092 .00135849 00000+0 73260-3 0 9991 2 67688 51.6246 171.4040 0007936 160.9140 199.2160 15.79194602 35037 CREW DRAGON 12 1 67796U 26031A 26263.78762384 .00007766 00000+0 14793-3 0 9993 2 67796 51.6308 186.9475 0004819 163.3027 196.8121 15.49200337587006 CYGNUS NG-24 1 68689U 26079A 26263.78762384 .00007766 00000+0 14793-3 0 9997 2 68689 51.6308 186.9475 0004819 163.3027 196.8121 15.49200337587020 PROGRESS-MS 34 1 68837U 26093A 26263.78762384 .00007766 00000+0 14793-3 0 9998 2 68837 51.6308 186.9475 0004819 163.3027 196.8121 15.49200337587047 TIANZHOU-10 1 69049U 26102A 26263.92234256 .00013769 00000+0 16837-3 0 9994 2 69049 41.4679 100.7142 0002502 293.6963 66.3613 15.60143111309036 SHENZHOU-23 (SZ-23) 1 69180U 26113A 26263.92234256 .00013769 00000+0 16837-3 0 9992 2 69180 41.4679 100.7142 0002502 293.6963 66.3613 15.60143111307917